User: anonymous   Login
Location: Unspecified
(0.0000°N, 0.0000°E)
Time: 20:43:56
(UTC+00:00)
Language:

USA 148 - Orbit

View from above orbital plane
View from above orbital plane
View from above satellite
View from above satellite

Ground track
Ground track

The orbit data is extracted from the following two-line orbital elements,

1 26052U 00001A   21137.34841279  .00000048  00000-0  00000+0 0  9999
2 26052   8.9238  44.7214 0002388   8.1898 128.0638  1.00272538 13004
Epoch (UTC): 17 May 2021 08:21:42
Eccentricity: 0.0002388
inclination: 8.9238°
perigee height: 35776 km
apogee height: 35796 km
right ascension of ascending node: 44.7214°
argument of perigee: 8.1898°
revolutions per day: 1.00272538
mean anomaly at epoch: 128.0638°
orbit number at epoch: 1300

The dashed part of the orbit path shows where the satellite is in the earth's shadow,  

DLR